Time,TemperatureF,DewpointF,PressureIn,WindDirection,WindDirectionDegrees,WindSpeedMPH,WindSpeedGustMPH,Humidity,HourlyPrecipIn,Conditions,Clouds,dailyrainin,SoftwareType,DateUTC
2013-01-02 00:03:00,5.5,0.1,30.15,SSE,156,0.0,5.0,78,0.00,,,0.00,Wunderground v.1.15,2013-01-02 06:03:00,
2013-01-02 00:10:00,5.3,-0.1,30.15,SSE,155,0.0,5.0,78,0.00,,,0.00,Wunderground v.1.15,2013-01-02 06:10:00,
2013-01-02 00:15:00,5.1,-0.3,30.16,SSE,165,0.0,5.0,78,0.00,,,0.00,Wunderground v.1.15,2013-01-02 06:15:00,
2013-01-02 00:21:00,4.9,-0.2,30.15,SSE,158,0.0,5.0,79,0.00,,,0.00,Wunderground v.1.15,2013-01-02 06:21:00,
2013-01-02 00:27:00,4.7,-0.4,30.15,SSE,155,0.0,5.0,79,0.00,,,0.00,Wunderground v.1.15,2013-01-02 06:27:00,
2013-01-02 00:33:00,4.5,-0.6,30.15,SSE,156,0.0,5.0,79,0.00,,,0.00,Wunderground v.1.15,2013-01-02 06:33:00,
2013-01-02 00:40:00,4.4,-0.4,30.15,SSE,156,0.0,5.0,80,0.00,,,0.00,Wunderground v.1.15,2013-01-02 06:40:00,
2013-01-02 00:45:00,4.4,-0.4,30.14,South,169,0.0,5.0,80,0.00,,,0.00,Wunderground v.1.15,2013-01-02 06:45:00,
2013-01-02 00:51:00,4.6,0.1,30.14,SSE,148,0.0,5.0,81,0.00,,,0.00,Wunderground v.1.15,2013-01-02 06:51:00,
2013-01-02 00:58:00,4.6,-0.2,30.13,ESE,120,0.0,5.0,80,0.00,,,0.00,Wunderground v.1.15,2013-01-02 06:58:00,
2013-01-02 01:03:00,4.5,-0.3,30.13,SE,141,1.0,5.0,80,0.00,,,0.00,Wunderground v.1.15,2013-01-02 07:03:00,
2013-01-02 01:09:00,4.5,-0.3,30.13,SE,131,1.0,5.0,80,0.00,,,0.00,Wunderground v.1.15,2013-01-02 07:09:00,
2013-01-02 01:16:00,4.4,-0.4,30.13,ESE,116,1.0,5.0,80,0.00,,,0.00,Wunderground v.1.15,2013-01-02 07:16:00,
2013-01-02 01:21:00,4.3,-0.5,30.13,ESE,115,0.0,5.0,80,0.00,,,0.00,Wunderground v.1.15,2013-01-02 07:21:00,
2013-01-02 01:28:00,4.3,-0.2,30.13,ESE,115,0.0,5.0,81,0.00,,,0.00,Wunderground v.1.15,2013-01-02 07:28:00,
2013-01-02 01:33:00,4.3,-0.2,30.13,ESE,122,0.0,5.0,81,0.00,,,0.00,Wunderground v.1.15,2013-01-02 07:33:00,
2013-01-02 01:39:00,4.2,-0.3,30.13,SE,127,0.0,5.0,81,0.00,,,0.00,Wunderground v.1.15,2013-01-02 07:39:00,
2013-01-02 01:46:00,4.1,-0.4,30.13,SE,131,0.0,5.0,81,0.00,,,0.00,Wunderground v.1.15,2013-01-02 07:46:00,
2013-01-02 01:51:00,4.0,-0.5,30.13,SE,139,0.0,5.0,81,0.00,,,0.00,Wunderground v.1.15,2013-01-02 07:51:00,
2013-01-02 01:57:00,4.0,-0.5,30.13,SE,134,0.0,5.0,81,0.00,,,0.00,Wunderground v.1.15,2013-01-02 07:57:00,
2013-01-02 02:04:00,4.1,-0.4,30.13,ESE,115,0.0,5.0,81,0.00,,,0.00,Wunderground v.1.15,2013-01-02 08:04:00,
2013-01-02 02:09:00,4.1,-0.4,30.12,ESE,122,0.0,5.0,81,0.00,,,0.00,Wunderground v.1.15,2013-01-02 08:09:00,
2013-01-02 02:15:00,4.0,-0.5,30.12,SE,128,1.0,5.0,81,0.00,,,0.00,Wunderground v.1.15,2013-01-02 08:15:00,
2013-01-02 02:22:00,4.0,-0.5,30.12,SE,124,1.0,5.0,81,0.00,,,0.00,Wunderground v.1.15,2013-01-02 08:22:00,
2013-01-02 02:27:00,4.1,-0.4,30.12,SE,124,0.0,5.0,81,0.00,,,0.00,Wunderground v.1.15,2013-01-02 08:27:00,
2013-01-02 02:34:00,4.0,-0.5,30.12,SE,124,0.0,5.0,81,0.00,,,0.00,Wunderground v.1.15,2013-01-02 08:34:00,
2013-01-02 02:39:00,4.0,-0.3,30.12,SE,124,0.0,5.0,82,0.00,,,0.00,Wunderground v.1.15,2013-01-02 08:39:00,
2013-01-02 02:45:00,3.9,-0.4,30.12,SE,124,0.0,5.0,82,0.00,,,0.00,Wunderground v.1.15,2013-01-02 08:45:00,
2013-01-02 02:52:00,4.1,-0.2,30.12,SE,124,0.0,5.0,82,0.00,,,0.00,Wunderground v.1.15,2013-01-02 08:52:00,
2013-01-02 02:57:00,4.2,-0.1,30.13,SSE,147,0.0,5.0,82,0.00,,,0.00,Wunderground v.1.15,2013-01-02 08:57:00,
2013-01-02 03:03:00,4.3,-0.2,30.12,SSE,155,0.0,5.0,81,0.00,,,0.00,Wunderground v.1.15,2013-01-02 09:03:00,
2013-01-02 03:10:00,4.3,-0.2,30.12,SE,143,0.0,5.0,81,0.00,,,0.00,Wunderground v.1.15,2013-01-02 09:10:00,
2013-01-02 03:15:00,4.3,-0.2,30.12,SE,138,0.0,5.0,81,0.00,,,0.00,Wunderground v.1.15,2013-01-02 09:15:00,
2013-01-02 03:21:00,4.4,-0.1,30.11,SE,142,0.0,5.0,81,0.00,,,0.00,Wunderground v.1.15,2013-01-02 09:21:00,
2013-01-02 03:28:00,4.6,0.1,30.11,SE,143,0.0,5.0,81,0.00,,,0.00,Wunderground v.1.15,2013-01-02 09:28:00,
2013-01-02 03:33:00,4.7,-0.1,30.11,SSE,156,0.0,5.0,80,0.00,,,0.00,Wunderground v.1.15,2013-01-02 09:33:00,
2013-01-02 03:39:00,4.8,0.0,30.11,SE,146,1.0,5.0,80,0.00,,,0.00,Wunderground v.1.15,2013-01-02 09:39:00,
2013-01-02 03:46:00,4.8,0.2,30.11,SE,141,1.0,5.0,81,0.00,,,0.00,Wunderground v.1.15,2013-01-02 09:46:00,
2013-01-02 03:51:00,4.8,0.2,30.11,SSE,153,0.0,5.0,81,0.00,,,0.00,Wunderground v.1.15,2013-01-02 09:51:00,
2013-01-02 03:57:00,4.8,0.2,30.11,SE,141,1.0,5.0,81,0.00,,,0.00,Wunderground v.1.15,2013-01-02 09:57:00,
2013-01-02 04:03:00,4.8,0.2,30.10,SE,135,1.0,5.0,81,0.00,,,0.00,Wunderground v.1.15,2013-01-02 10:03:00,
2013-01-02 04:09:00,4.8,0.2,30.10,SE,139,1.0,5.0,81,0.00,,,0.00,Wunderground v.1.15,2013-01-02 10:09:00,
2013-01-02 04:15:00,4.9,0.3,30.10,SE,141,1.0,5.0,81,0.00,,,0.00,Wunderground v.1.15,2013-01-02 10:15:00,
2013-01-02 04:21:00,4.9,0.3,30.09,SE,131,1.0,5.0,81,0.00,,,0.00,Wunderground v.1.15,2013-01-02 10:21:00,
2013-01-02 04:27:00,4.9,0.6,30.09,SE,136,0.0,5.0,82,0.00,,,0.00,Wunderground v.1.15,2013-01-02 10:27:00,
2013-01-02 04:34:00,4.7,0.4,30.09,SSE,155,1.0,5.0,82,0.00,,,0.00,Wunderground v.1.15,2013-01-02 10:34:00,
2013-01-02 04:39:00,4.6,0.3,30.09,SE,141,1.0,1.0,82,0.00,,,0.00,Wunderground v.1.15,2013-01-02 10:39:00,
2013-01-02 04:45:00,4.5,0.2,30.09,SE,143,1.0,5.0,82,0.00,,,0.00,Wunderground v.1.15,2013-01-02 10:45:00,
2013-01-02 04:52:00,4.4,0.1,30.08,SE,140,1.0,5.0,82,0.00,,,0.00,Wunderground v.1.15,2013-01-02 10:52:00,
2013-01-02 04:57:00,4.2,-0.1,30.08,SE,131,1.0,5.0,82,0.00,,,0.00,Wunderground v.1.15,2013-01-02 10:57:00,
2013-01-02 05:04:00,4.1,-0.2,30.08,SE,131,2.0,5.0,82,0.00,,,0.00,Wunderground v.1.15,2013-01-02 11:04:00,
2013-01-02 05:09:00,4.0,0.0,30.08,SE,138,3.0,5.0,83,0.00,,,0.00,Wunderground v.1.15,2013-01-02 11:09:00,
2013-01-02 05:15:00,4.0,-0.3,30.08,SE,146,3.0,5.0,82,0.00,,,0.00,Wunderground v.1.15,2013-01-02 11:15:00,
2013-01-02 05:22:00,4.0,0.0,30.08,SE,143,2.0,5.0,83,0.00,,,0.00,Wunderground v.1.15,2013-01-02 11:22:00,
2013-01-02 05:27:00,3.8,-0.5,30.08,SE,140,3.0,5.0,82,0.00,,,0.00,Wunderground v.1.15,2013-01-02 11:27:00,
2013-01-02 05:33:00,3.6,-0.4,30.08,SE,135,2.0,5.0,83,0.00,,,0.00,Wunderground v.1.15,2013-01-02 11:33:00,
2013-01-02 05:40:00,3.5,-0.5,30.08,SSE,157,2.0,5.0,83,0.00,,,0.00,Wunderground v.1.15,2013-01-02 11:40:00,
2013-01-02 05:45:00,3.5,-0.5,30.08,SE,133,2.0,5.0,83,0.00,,,0.00,Wunderground v.1.15,2013-01-02 11:45:00,
2013-01-02 05:51:00,3.5,-0.5,30.08,ESE,119,3.0,5.0,83,0.00,,,0.00,Wunderground v.1.15,2013-01-02 11:51:00,
2013-01-02 05:58:00,3.4,-0.3,30.08,SE,127,2.0,5.0,84,0.00,,,0.00,Wunderground v.1.15,2013-01-02 11:58:00,
2013-01-02 06:03:00,3.3,-0.4,30.08,SE,136,2.0,5.0,84,0.00,,,0.00,Wunderground v.1.15,2013-01-02 12:03:00,
2013-01-02 06:10:00,3.5,-0.2,30.08,SE,142,2.0,2.0,84,0.00,,,0.00,Wunderground v.1.15,2013-01-02 12:10:00,
2013-01-02 06:15:00,3.4,-0.3,30.07,SSE,153,3.0,5.0,84,0.00,,,0.00,Wunderground v.1.15,2013-01-02 12:15:00,
2013-01-02 06:22:00,3.6,-0.2,30.07,SE,134,2.0,5.0,84,0.00,,,0.00,Wunderground v.1.15,2013-01-02 12:22:00,
2013-01-02 06:27:00,3.6,-0.2,30.07,SE,135,3.0,5.0,84,0.00,,,0.00,Wunderground v.1.15,2013-01-02 12:27:00,
2013-01-02 06:33:00,3.5,-0.2,30.07,SE,135,3.0,5.0,84,0.00,,,0.00,Wunderground v.1.15,2013-01-02 12:33:00,
2013-01-02 06:40:00,3.5,-0.2,30.07,SE,131,3.0,5.0,84,0.00,,,0.00,Wunderground v.1.15,2013-01-02 12:40:00,
2013-01-02 06:45:00,3.5,-0.2,30.08,SSE,147,3.0,5.0,84,0.00,,,0.00,Wunderground v.1.15,2013-01-02 12:45:00,
2013-01-02 06:51:00,3.5,-0.2,30.07,SSE,152,3.0,5.0,84,0.00,,,0.00,Wunderground v.1.15,2013-01-02 12:51:00,
2013-01-02 06:57:00,3.6,-0.2,30.08,SE,146,2.0,5.0,84,0.00,,,0.00,Wunderground v.1.15,2013-01-02 12:57:00,
2013-01-02 07:03:00,3.5,-0.2,30.08,SSE,147,2.0,5.0,84,0.00,,,0.00,Wunderground v.1.15,2013-01-02 13:03:00,
2013-01-02 07:09:00,3.6,0.1,30.08,SSE,153,1.0,5.0,85,0.00,,,0.00,Wunderground v.1.15,2013-01-02 13:09:00,
2013-01-02 07:16:00,3.9,0.4,30.08,SSE,155,1.0,5.0,85,0.00,,,0.00,Wunderground v.1.15,2013-01-02 13:16:00,
2013-01-02 07:21:00,4.1,0.6,30.08,SE,133,1.0,5.0,85,0.00,,,0.00,Wunderground v.1.15,2013-01-02 13:21:00,
2013-01-02 07:28:00,4.2,0.4,30.08,SE,142,1.0,5.0,84,0.00,,,0.00,Wunderground v.1.15,2013-01-02 13:28:00,
2013-01-02 07:33:00,4.4,0.6,30.08,SSE,151,1.0,5.0,84,0.00,,,0.00,Wunderground v.1.15,2013-01-02 13:33:00,
2013-01-02 07:39:00,4.6,0.8,30.07,ESE,106,2.0,5.0,84,0.00,,,0.00,Wunderground v.1.15,2013-01-02 13:39:00,
2013-01-02 07:46:00,4.9,1.1,30.07,SE,142,2.0,5.0,84,0.00,,,0.00,Wunderground v.1.15,2013-01-02 13:46:00,
2013-01-02 07:51:00,5.0,1.2,30.07,SSE,152,1.0,5.0,84,0.00,,,0.00,Wunderground v.1.15,2013-01-02 13:51:00,
2013-01-02 07:57:00,5.2,1.4,30.07,SE,133,1.0,5.0,84,0.00,,,0.00,Wunderground v.1.15,2013-01-02 13:57:00,
2013-01-02 08:03:00,5.3,1.5,30.07,ESE,122,1.0,5.0,84,0.00,,,0.00,Wunderground v.1.15,2013-01-02 14:03:00,
2013-01-02 08:09:00,5.6,1.8,30.07,SSE,153,1.0,5.0,84,0.00,,,0.00,Wunderground v.1.15,2013-01-02 14:09:00,
2013-01-02 08:15:00,6.3,2.2,30.07,SSE,154,1.0,5.0,83,0.00,,,0.00,Wunderground v.1.15,2013-01-02 14:15:00,
2013-01-02 08:21:00,6.7,2.4,30.07,SE,141,1.0,5.0,82,0.00,,,0.00,Wunderground v.1.15,2013-01-02 14:21:00,
2013-01-02 08:27:00,7.0,2.7,30.07,SSE,155,1.0,5.0,82,0.00,,,0.00,Wunderground v.1.15,2013-01-02 14:27:00,
2013-01-02 08:34:00,7.5,2.9,30.07,SSE,158,1.0,5.0,81,0.00,,,0.00,Wunderground v.1.15,2013-01-02 14:34:00,
2013-01-02 08:39:00,8.0,3.4,30.07,SSE,154,1.0,1.0,81,0.00,,,0.00,Wunderground v.1.15,2013-01-02 14:39:00,
2013-01-02 08:45:00,8.3,3.4,30.08,SSE,152,1.0,5.0,80,0.00,,,0.00,Wunderground v.1.15,2013-01-02 14:45:00,
2013-01-02 08:51:00,8.5,3.9,30.07,SSE,166,1.0,5.0,81,0.00,,,0.00,Wunderground v.1.15,2013-01-02 14:51:00,
2013-01-02 08:57:00,8.8,3.9,30.07,SSE,162,1.0,5.0,80,0.00,,,0.00,Wunderground v.1.15,2013-01-02 14:57:00,
2013-01-02 09:04:00,8.9,4.0,30.07,SSE,158,1.0,5.0,80,0.00,,,0.00,Wunderground v.1.15,2013-01-02 15:04:00,
2013-01-02 09:09:00,9.2,4.3,30.07,South,170,1.0,5.0,80,0.00,,,0.00,Wunderground v.1.15,2013-01-02 15:09:00,
2013-01-02 09:15:00,10.0,5.1,30.07,ESE,119,2.0,5.0,80,0.00,,,0.00,Wunderground v.1.15,2013-01-02 15:15:00,
2013-01-02 09:21:00,10.5,5.3,30.06,SSE,152,1.0,5.0,79,0.00,,,0.00,Wunderground v.1.15,2013-01-02 15:21:00,
2013-01-02 09:27:00,11.0,5.8,30.06,SSE,159,1.0,5.0,79,0.00,,,0.00,Wunderground v.1.15,2013-01-02 15:27:00,
2013-01-02 09:34:00,11.3,5.8,30.07,South,187,1.0,3.0,78,0.00,,,0.00,Wunderground v.1.15,2013-01-02 15:34:00,
2013-01-02 09:39:00,11.4,5.9,30.07,SSW,197,2.0,5.0,78,0.00,,,0.00,Wunderground v.1.15,2013-01-02 15:39:00,
2013-01-02 09:45:00,11.5,6.0,30.07,South,176,2.0,5.0,78,0.00,,,0.00,Wunderground v.1.15,2013-01-02 15:45:00,
2013-01-02 09:52:00,11.6,6.1,30.07,SW,215,2.0,5.0,78,0.00,,,0.00,Wunderground v.1.15,2013-01-02 15:52:00,
2013-01-02 09:57:00,11.7,6.4,30.07,South,187,2.0,5.0,79,0.00,,,0.00,Wunderground v.1.15,2013-01-02 15:57:00,
2013-01-02 10:04:00,12.0,6.7,30.06,SE,135,2.0,5.0,79,0.00,,,0.00,Wunderground v.1.15,2013-01-02 16:04:00,
2013-01-02 10:09:00,12.4,7.1,30.07,SE,126,1.0,5.0,79,0.00,,,0.00,Wunderground v.1.15,2013-01-02 16:09:00,
2013-01-02 10:15:00,12.5,7.2,30.06,SE,136,2.0,5.0,79,0.00,,,0.00,Wunderground v.1.15,2013-01-02 16:15:00,
2013-01-02 10:22:00,12.9,7.6,30.07,SE,146,1.0,5.0,79,0.00,,,0.00,Wunderground v.1.15,2013-01-02 16:22:00,
2013-01-02 10:27:00,13.2,7.9,30.06,SSE,163,2.0,5.0,79,0.00,,,0.00,Wunderground v.1.15,2013-01-02 16:27:00,
2013-01-02 10:34:00,13.5,8.5,30.06,South,187,3.0,5.0,80,0.00,,,0.00,Wunderground v.1.15,2013-01-02 16:34:00,
2013-01-02 10:39:00,14.1,9.1,30.06,SSE,163,2.0,2.0,80,0.00,,,0.00,Wunderground v.1.15,2013-01-02 16:39:00,
2013-01-02 10:45:00,14.3,9.0,30.06,SSW,207,2.0,5.0,79,0.00,,,0.00,Wunderground v.1.15,2013-01-02 16:45:00,
2013-01-02 10:52:00,14.5,9.5,30.05,SE,141,2.0,3.0,80,0.00,,,0.00,Wunderground v.1.15,2013-01-02 16:52:00,
2013-01-02 10:57:00,14.8,9.5,30.05,SSW,207,2.0,5.0,79,0.00,,,0.00,Wunderground v.1.15,2013-01-02 16:57:00,
2013-01-02 11:03:00,15.0,9.7,30.05,SSW,194,2.0,5.0,79,0.00,,,0.00,Wunderground v.1.15,2013-01-02 17:03:00,
2013-01-02 11:09:00,15.4,10.1,30.05,SSW,211,2.0,2.0,79,0.00,,,0.00,Wunderground v.1.15,2013-01-02 17:09:00,
2013-01-02 11:15:00,15.4,10.3,30.05,WSW,240,2.0,5.0,80,0.00,,,0.00,Wunderground v.1.15,2013-01-02 17:15:00,
2013-01-02 11:21:00,15.5,10.4,30.04,SSW,203,3.0,5.0,80,0.00,,,0.00,Wunderground v.1.15,2013-01-02 17:21:00,
2013-01-02 11:27:00,15.8,10.7,30.04,SW,229,3.0,5.0,80,0.00,,,0.00,Wunderground v.1.15,2013-01-02 17:27:00,
2013-01-02 11:33:00,15.9,10.8,30.04,WSW,245,3.0,6.0,80,0.00,,,0.00,Wunderground v.1.15,2013-01-02 17:33:00,
2013-01-02 11:40:00,16.2,11.4,30.05,WSW,252,3.0,3.0,81,0.00,,,0.00,Wunderground v.1.15,2013-01-02 17:40:00,
2013-01-02 11:45:00,16.2,11.1,30.05,WSW,253,3.0,6.0,80,0.00,,,0.00,Wunderground v.1.15,2013-01-02 17:45:00,
2013-01-02 11:51:00,16.4,11.3,30.05,SSW,207,4.0,5.0,80,0.00,,,0.00,Wunderground v.1.15,2013-01-02 17:51:00,
2013-01-02 11:58:00,16.6,11.8,30.04,WSW,242,3.0,5.0,81,0.00,,,0.00,Wunderground v.1.15,2013-01-02 17:58:00,
2013-01-02 12:03:00,17.3,12.5,30.04,SSE,158,3.0,5.0,81,0.00,,,0.00,Wunderground v.1.15,2013-01-02 18:03:00,
2013-01-02 12:09:00,17.8,12.7,30.03,SW,218,3.0,3.0,80,0.00,,,0.00,Wunderground v.1.15,2013-01-02 18:09:00,
2013-01-02 12:15:00,18.1,13.0,30.03,South,180,3.0,5.0,80,0.00,,,0.00,Wunderground v.1.15,2013-01-02 18:15:00,
2013-01-02 12:21:00,18.3,13.2,30.02,SW,228,3.0,5.0,80,0.00,,,0.00,Wunderground v.1.15,2013-01-02 18:21:00,
2013-01-02 12:28:00,18.2,13.1,30.02,WSW,242,4.0,8.0,80,0.00,,,0.00,Wunderground v.1.15,2013-01-02 18:28:00,
2013-01-02 12:33:00,18.5,13.6,30.02,SSW,192,4.0,5.0,81,0.00,,,0.00,Wunderground v.1.15,2013-01-02 18:33:00,
2013-01-02 12:39:00,18.9,13.7,30.02,South,179,3.0,3.0,80,0.00,,,0.00,Wunderground v.1.15,2013-01-02 18:39:00,
2013-01-02 12:46:00,19.3,14.1,30.01,SSE,155,2.0,6.0,80,0.00,,,0.00,Wunderground v.1.15,2013-01-02 18:46:00,
2013-01-02 12:51:00,19.7,14.2,30.02,WSW,245,2.0,5.0,79,0.00,,,0.00,Wunderground v.1.15,2013-01-02 18:51:00,
2013-01-02 12:58:00,19.5,14.0,30.02,WSW,245,4.0,8.0,79,0.00,,,0.00,Wunderground v.1.15,2013-01-02 18:58:00,
2013-01-02 13:03:00,19.6,14.1,30.02,West,277,4.0,5.0,79,0.00,,,0.00,Wunderground v.1.15,2013-01-02 19:03:00,
2013-01-02 13:09:00,20.2,14.7,30.02,WNW,282,3.0,3.0,79,0.00,,,0.00,Wunderground v.1.15,2013-01-02 19:09:00,
2013-01-02 13:16:00,20.4,14.6,30.02,SSW,205,2.0,5.0,78,0.00,,,0.00,Wunderground v.1.15,2013-01-02 19:16:00,
2013-01-02 13:21:00,20.4,14.6,30.02,WSW,242,2.0,5.0,78,0.00,,,0.00,Wunderground v.1.15,2013-01-02 19:21:00,
2013-01-02 13:27:00,20.2,14.7,30.02,SSW,201,3.0,5.0,79,0.00,,,0.00,Wunderground v.1.15,2013-01-02 19:27:00,
2013-01-02 13:33:00,20.7,15.2,30.02,WSW,245,3.0,5.0,79,0.00,,,0.00,Wunderground v.1.15,2013-01-02 19:33:00,
2013-01-02 13:39:00,20.9,15.4,30.01,SSW,197,3.0,5.0,79,0.00,,,0.00,Wunderground v.1.15,2013-01-02 19:39:00,
2013-01-02 13:46:00,20.9,15.4,30.01,SW,214,2.0,5.0,79,0.00,,,0.00,Wunderground v.1.15,2013-01-02 19:46:00,
2013-01-02 13:51:00,20.9,15.4,30.01,SW,225,3.0,5.0,79,0.00,,,0.00,Wunderground v.1.15,2013-01-02 19:51:00,
2013-01-02 13:57:00,21.1,15.9,30.01,SSW,195,3.0,5.0,80,0.00,,,0.00,Wunderground v.1.15,2013-01-02 19:57:00,
2013-01-02 14:04:00,21.0,15.5,30.01,SSW,211,3.0,5.0,79,0.00,,,0.00,Wunderground v.1.15,2013-01-02 20:04:00,
2013-01-02 14:09:00,20.9,15.7,30.02,WSW,248,3.0,6.0,80,0.00,,,0.00,Wunderground v.1.15,2013-01-02 20:09:00,
2013-01-02 14:15:00,21.1,16.2,30.02,WNW,284,3.0,6.0,81,0.00,,,0.00,Wunderground v.1.15,2013-01-02 20:15:00,
2013-01-02 14:22:00,21.2,16.3,30.02,SW,235,3.0,6.0,81,0.00,,,0.00,Wunderground v.1.15,2013-01-02 20:22:00,
2013-01-02 14:27:00,21.1,15.9,30.02,West,263,4.0,7.0,80,0.00,,,0.00,Wunderground v.1.15,2013-01-02 20:27:00,
2013-01-02 14:33:00,21.1,16.2,30.02,SSW,210,5.0,5.0,81,0.00,,,0.00,Wunderground v.1.15,2013-01-02 20:33:00,
2013-01-02 14:40:00,21.2,16.3,30.02,SE,127,4.0,4.0,81,0.00,,,0.00,Wunderground v.1.15,2013-01-02 20:40:00,
2013-01-02 14:45:00,21.4,16.5,30.02,West,268,3.0,6.0,81,0.00,,,0.00,Wunderground v.1.15,2013-01-02 20:45:00,
2013-01-02 14:51:00,21.4,16.8,30.02,WSW,245,3.0,5.0,82,0.00,,,0.00,Wunderground v.1.15,2013-01-02 20:51:00,
2013-01-02 14:57:00,21.3,16.4,30.02,SSW,211,4.0,5.0,81,0.00,,,0.00,Wunderground v.1.15,2013-01-02 20:57:00,
2013-01-02 15:03:00,21.2,16.6,30.02,WSW,257,4.0,5.0,82,0.00,,,0.00,Wunderground v.1.15,2013-01-02 21:03:00,
2013-01-02 15:09:00,21.2,16.6,30.02,SW,217,4.0,5.0,82,0.00,,,0.00,Wunderground v.1.15,2013-01-02 21:09:00,
2013-01-02 15:15:00,21.3,16.4,30.02,West,270,4.0,6.0,81,0.00,,,0.00,Wunderground v.1.15,2013-01-02 21:15:00,
2013-01-02 15:21:00,21.2,16.3,30.03,West,267,4.0,7.0,81,0.00,,,0.00,Wunderground v.1.15,2013-01-02 21:21:00,
2013-01-02 15:28:00,21.2,16.6,30.03,SW,225,5.0,7.0,82,0.00,,,0.00,Wunderground v.1.15,2013-01-02 21:28:00,
2013-01-02 15:33:00,21.3,16.7,30.03,WSW,255,4.0,8.0,82,0.00,,,0.00,Wunderground v.1.15,2013-01-02 21:33:00,
2013-01-02 15:39:00,21.2,16.3,30.03,SW,235,4.0,5.0,81,0.00,,,0.00,Wunderground v.1.15,2013-01-02 21:39:00,
2013-01-02 15:46:00,21.1,16.5,30.03,SSW,202,4.0,5.0,82,0.00,,,0.00,Wunderground v.1.15,2013-01-02 21:46:00,
2013-01-02 15:51:00,21.1,16.5,30.03,SW,226,4.0,7.0,82,0.00,,,0.00,Wunderground v.1.15,2013-01-02 21:51:00,
2013-01-02 15:57:00,21.1,16.5,30.03,West,270,3.0,7.0,82,0.00,,,0.00,Wunderground v.1.15,2013-01-02 21:57:00,
2013-01-02 16:04:00,21.1,16.5,30.03,WSW,253,3.0,7.0,82,0.00,,,0.00,Wunderground v.1.15,2013-01-02 22:04:00,
2013-01-02 16:09:00,21.1,16.5,30.03,WNW,285,3.0,3.0,82,0.00,,,0.00,Wunderground v.1.15,2013-01-02 22:09:00,
2013-01-02 16:15:00,21.0,16.6,30.03,WSW,257,2.0,5.0,83,0.00,,,0.00,Wunderground v.1.15,2013-01-02 22:15:00,
2013-01-02 16:21:00,21.0,16.6,30.03,SW,215,3.0,5.0,83,0.00,,,0.00,Wunderground v.1.15,2013-01-02 22:21:00,
2013-01-02 16:27:00,21.1,17.0,30.03,SW,222,4.0,5.0,84,0.00,,,0.00,Wunderground v.1.15,2013-01-02 22:27:00,
2013-01-02 16:34:00,21.1,17.0,30.03,WSW,245,3.0,5.0,84,0.00,,,0.00,Wunderground v.1.15,2013-01-02 22:34:00,
2013-01-02 16:39:00,21.1,17.3,30.04,West,278,3.0,3.0,85,0.00,,,0.00,Wunderground v.1.15,2013-01-02 22:39:00,
2013-01-02 16:45:00,21.2,17.4,30.04,WSW,253,2.0,5.0,85,0.00,,,0.00,Wunderground v.1.15,2013-01-02 22:45:00,
2013-01-02 16:52:00,21.2,17.4,30.05,WNW,295,2.0,5.0,85,0.00,,,0.00,Wunderground v.1.15,2013-01-02 22:52:00,
2013-01-02 16:57:00,21.3,17.5,30.05,WNW,295,2.0,5.0,85,0.00,,,0.00,Wunderground v.1.15,2013-01-02 22:57:00,
2013-01-02 17:04:00,21.3,17.5,30.05,West,260,2.0,5.0,85,0.00,,,0.00,Wunderground v.1.15,2013-01-02 23:04:00,
2013-01-02 17:09:00,21.4,17.6,30.05,West,264,2.0,5.0,85,0.00,,,0.00,Wunderground v.1.15,2013-01-02 23:09:00,
2013-01-02 17:15:00,21.5,18.0,30.05,West,267,1.0,5.0,86,0.00,,,0.00,Wunderground v.1.15,2013-01-02 23:15:00,
2013-01-02 17:22:00,21.6,17.8,30.05,WNW,293,1.0,5.0,85,0.00,,,0.00,Wunderground v.1.15,2013-01-02 23:22:00,
2013-01-02 17:27:00,21.6,18.1,30.05,West,277,2.0,5.0,86,0.00,,,0.00,Wunderground v.1.15,2013-01-02 23:27:00,
2013-01-02 17:33:00,21.7,18.2,30.05,NW,304,1.0,5.0,86,0.00,,,0.00,Wunderground v.1.15,2013-01-02 23:33:00,
2013-01-02 17:40:00,21.7,18.2,30.05,WSW,250,2.0,5.0,86,0.00,,,0.00,Wunderground v.1.15,2013-01-02 23:40:00,
2013-01-02 17:45:00,21.7,18.2,30.05,WSW,257,2.0,5.0,86,0.00,,,0.00,Wunderground v.1.15,2013-01-02 23:45:00,
2013-01-02 17:51:00,21.8,18.3,30.05,West,271,2.0,5.0,86,0.00,,,0.00,Wunderground v.1.15,2013-01-02 23:51:00,
2013-01-02 17:58:00,21.8,18.3,30.05,SW,217,1.0,5.0,86,0.00,,,0.00,Wunderground v.1.15,2013-01-02 23:58:00,
2013-01-02 18:03:00,21.9,18.6,30.06,WSW,255,2.0,5.0,87,0.00,,,0.00,Wunderground v.1.15,2013-01-03 00:03:00,
2013-01-02 18:10:00,21.9,18.6,30.06,West,277,2.0,2.0,87,0.00,,,0.00,Wunderground v.1.15,2013-01-03 00:10:00,
2013-01-02 18:15:00,21.9,18.6,30.06,West,280,1.0,5.0,87,0.00,,,0.00,Wunderground v.1.15,2013-01-03 00:15:00,
2013-01-02 18:21:00,22.0,18.7,30.06,WSW,248,1.0,5.0,87,0.00,,,0.00,Wunderground v.1.15,2013-01-03 00:21:00,
2013-01-02 18:28:00,22.1,18.8,30.07,WSW,240,1.0,5.0,87,0.00,,,0.00,Wunderground v.1.15,2013-01-03 00:28:00,
2013-01-02 18:34:00,22.2,18.9,30.07,WSW,257,2.0,5.0,87,0.00,,,0.00,Wunderground v.1.15,2013-01-03 00:34:00,
2013-01-02 18:39:00,22.3,19.3,30.07,West,264,2.0,5.0,88,0.00,,,0.00,Wunderground v.1.15,2013-01-03 00:39:00,
2013-01-02 18:45:00,22.4,19.4,30.07,WSW,250,2.0,5.0,88,0.00,,,0.00,Wunderground v.1.15,2013-01-03 00:45:00,
2013-01-02 18:51:00,22.5,19.5,30.07,West,277,3.0,5.0,88,0.00,,,0.00,Wunderground v.1.15,2013-01-03 00:51:00,
2013-01-02 18:58:00,22.4,19.4,30.07,SW,231,2.0,5.0,88,0.00,,,0.00,Wunderground v.1.15,2013-01-03 00:58:00,
2013-01-02 19:03:00,22.4,19.4,30.07,West,262,2.0,5.0,88,0.00,,,0.00,Wunderground v.1.15,2013-01-03 01:03:00,
2013-01-02 19:09:00,22.5,19.5,30.07,West,273,2.0,2.0,88,0.00,,,0.00,Wunderground v.1.15,2013-01-03 01:09:00,
2013-01-02 19:16:00,22.7,19.7,30.07,West,269,2.0,5.0,88,0.00,,,0.00,Wunderground v.1.15,2013-01-03 01:16:00,
2013-01-02 19:21:00,22.8,20.0,30.07,West,266,3.0,5.0,89,0.00,,,0.00,Wunderground v.1.15,2013-01-03 01:21:00,
2013-01-02 19:27:00,22.8,20.0,30.06,WSW,245,4.0,5.0,89,0.00,,,0.00,Wunderground v.1.15,2013-01-03 01:27:00,
2013-01-02 19:33:00,22.9,20.1,30.06,WSW,248,3.0,5.0,89,0.00,,,0.00,Wunderground v.1.15,2013-01-03 01:33:00,
2013-01-02 19:39:00,23.0,20.2,30.06,West,259,3.0,6.0,89,0.00,,,0.00,Wunderground v.1.15,2013-01-03 01:39:00,
2013-01-02 19:46:00,23.1,20.6,30.06,SW,231,3.0,6.0,90,0.00,,,0.00,Wunderground v.1.15,2013-01-03 01:46:00,
2013-01-02 19:51:00,23.2,20.7,30.07,West,270,3.0,5.0,90,0.00,,,0.00,Wunderground v.1.15,2013-01-03 01:51:00,
2013-01-02 19:58:00,23.4,20.9,30.06,WSW,250,3.0,5.0,90,0.00,,,0.00,Wunderground v.1.15,2013-01-03 01:58:00,
2013-01-02 20:03:00,23.5,21.0,30.06,WNW,287,3.0,5.0,90,0.00,,,0.00,Wunderground v.1.15,2013-01-03 02:03:00,
2013-01-02 20:09:00,23.7,21.2,30.06,West,274,2.0,5.0,90,0.00,,,0.00,Wunderground v.1.15,2013-01-03 02:09:00,
2013-01-02 20:16:00,23.8,21.6,30.06,WNW,293,2.0,5.0,91,0.00,,,0.00,Wunderground v.1.15,2013-01-03 02:16:00,
2013-01-02 20:21:00,23.8,21.6,30.06,WSW,252,2.0,5.0,91,0.00,,,0.00,Wunderground v.1.15,2013-01-03 02:21:00,
2013-01-02 20:28:00,23.9,21.7,30.06,West,276,2.0,5.0,91,0.00,,,0.00,Wunderground v.1.15,2013-01-03 02:28:00,
2013-01-02 20:33:00,24.1,21.9,30.06,West,263,2.0,5.0,91,0.00,,,0.00,Wunderground v.1.15,2013-01-03 02:33:00,
2013-01-02 20:39:00,24.3,22.1,30.06,WNW,290,2.0,5.0,91,0.00,,,0.00,Wunderground v.1.15,2013-01-03 02:39:00,
2013-01-02 20:46:00,24.5,22.5,30.06,West,274,3.0,5.0,92,0.00,,,0.00,Wunderground v.1.15,2013-01-03 02:46:00,
2013-01-02 20:51:00,24.6,22.6,30.06,WSW,248,3.0,5.0,92,0.00,,,0.00,Wunderground v.1.15,2013-01-03 02:51:00,
2013-01-02 20:57:00,24.8,22.8,30.06,West,277,2.0,5.0,92,0.00,,,0.00,Wunderground v.1.15,2013-01-03 02:57:00,
2013-01-02 21:03:00,24.8,22.8,30.06,WSW,248,1.0,5.0,92,0.00,,,0.00,Wunderground v.1.15,2013-01-03 03:03:00,
2013-01-02 21:09:00,25.0,23.0,30.06,West,277,2.0,2.0,92,0.00,,,0.00,Wunderground v.1.15,2013-01-03 03:09:00,
2013-01-02 21:15:00,25.0,23.0,30.06,West,274,1.0,5.0,92,0.00,,,0.00,Wunderground v.1.15,2013-01-03 03:15:00,
2013-01-02 21:22:00,25.2,23.2,30.06,West,263,2.0,5.0,92,0.00,,,0.00,Wunderground v.1.15,2013-01-03 03:22:00,
2013-01-02 21:27:00,25.3,23.3,30.06,WSW,252,3.0,5.0,92,0.00,,,0.00,Wunderground v.1.15,2013-01-03 03:27:00,
2013-01-02 21:33:00,25.3,23.3,30.06,West,260,2.0,5.0,92,0.00,,,0.00,Wunderground v.1.15,2013-01-03 03:33:00,
2013-01-02 21:40:00,25.4,23.4,30.07,WNW,290,2.0,5.0,92,0.00,,,0.00,Wunderground v.1.15,2013-01-03 03:40:00,
2013-01-02 21:46:00,25.5,23.5,30.07,West,260,2.0,5.0,92,0.00,,,0.00,Wunderground v.1.15,2013-01-03 03:46:00,
2013-01-02 21:51:00,25.6,23.6,30.07,West,262,1.0,5.0,92,0.00,,,0.00,Wunderground v.1.15,2013-01-03 03:51:00,
2013-01-02 21:57:00,25.7,23.7,30.07,WSW,255,1.0,5.0,92,0.00,,,0.00,Wunderground v.1.15,2013-01-03 03:57:00,
2013-01-02 22:04:00,25.9,23.9,30.07,WSW,253,2.0,5.0,92,0.00,,,0.00,Wunderground v.1.15,2013-01-03 04:04:00,
2013-01-02 22:09:00,26.0,24.0,30.07,WNW,297,2.0,2.0,92,0.00,,,0.00,Wunderground v.1.15,2013-01-03 04:09:00,
2013-01-02 22:15:00,26.1,24.1,30.07,WNW,302,2.0,5.0,92,0.00,,,0.00,Wunderground v.1.15,2013-01-03 04:15:00,
2013-01-02 22:21:00,26.2,24.2,30.08,NW,309,2.0,5.0,92,0.00,,,0.00,Wunderground v.1.15,2013-01-03 04:21:00,
2013-01-02 22:27:00,26.3,24.3,30.08,WNW,282,2.0,5.0,92,0.00,,,0.00,Wunderground v.1.15,2013-01-03 04:27:00,
2013-01-02 22:34:00,26.5,24.5,30.08,West,267,2.0,5.0,92,0.00,,,0.00,Wunderground v.1.15,2013-01-03 04:34:00,
2013-01-02 22:39:00,26.6,24.8,30.08,West,279,1.0,1.0,93,0.00,,,0.00,Wunderground v.1.15,2013-01-03 04:39:00,
2013-01-02 22:45:00,26.9,25.1,30.08,WNW,302,2.0,5.0,93,0.00,,,0.00,Wunderground v.1.15,2013-01-03 04:45:00,
2013-01-02 22:52:00,27.1,25.3,30.08,WSW,257,2.0,5.0,93,0.00,,,0.00,Wunderground v.1.15,2013-01-03 04:52:00,
2013-01-02 22:57:00,27.2,25.4,30.08,West,280,2.0,5.0,93,0.00,,,0.00,Wunderground v.1.15,2013-01-03 04:57:00,
2013-01-02 23:02:00,27.4,25.6,30.08,NW,309,2.0,5.0,93,0.00,,,0.00,Wunderground v.1.15,2013-01-03 05:02:00,
2013-01-02 23:03:00,27.4,25.6,30.08,West,276,2.0,5.0,93,0.00,,,0.00,Wunderground v.1.15,2013-01-03 05:03:00,
2013-01-02 23:05:00,27.4,25.6,30.08,NW,304,1.0,5.0,93,0.00,,,0.00,Wunderground v.1.15,2013-01-03 05:05:00,
2013-01-02 23:07:00,27.5,25.7,30.08,WNW,289,2.0,5.0,93,0.00,,,0.00,Wunderground v.1.15,2013-01-03 05:07:00,
2013-01-02 23:14:00,27.8,26.0,30.08,NW,304,2.0,5.0,93,0.00,,,0.00,Wunderground v.1.15,2013-01-03 05:14:00,
2013-01-02 23:19:00,28.0,26.2,30.08,West,264,2.0,5.0,93,0.00,,,0.00,Wunderground v.1.15,2013-01-03 05:19:00,
2013-01-02 23:25:00,28.2,26.4,30.09,WSW,253,2.0,5.0,93,0.00,,,0.00,Wunderground v.1.15,2013-01-03 05:25:00,
2013-01-02 23:32:00,28.2,26.4,30.09,WSW,243,2.0,4.0,93,0.00,,,0.00,Wunderground v.1.15,2013-01-03 05:32:00,
2013-01-02 23:37:00,28.2,26.4,30.08,West,279,1.0,5.0,93,0.00,,,0.00,Wunderground v.1.15,2013-01-03 05:37:00,
2013-01-02 23:43:00,28.3,26.5,30.09,NNW,332,2.0,3.0,93,0.00,,,0.00,Wunderground v.1.15,2013-01-03 05:43:00,
2013-01-02 23:49:00,28.3,26.3,30.09,NW,314,2.0,5.0,92,0.00,,,0.00,Wunderground v.1.15,2013-01-03 05:49:00,
2013-01-02 23:55:00,28.3,26.3,30.09,WNW,300,2.0,5.0,92,0.00,,,0.00,Wunderground v.1.15,2013-01-03 05:55:00,